Location: Meanaryar
(48.4161°N, 4.7315°W)
Time: 16:15:46
(UTC+00:00)

CENTAUR R/B - Pass Details

Date: 18 September 2020
Orbit: 753 x 1435 km, 63.5° (Epoch: 26 October)

Event Time Altitude Azimuth Distance (km) Brightness Sun altitude
Rises 19:21:41 0° 315° (NW) 4,004 6.8 -10.2°
Reaches altitude 10° 19:24:25 10° 322° (NW) 3,136 6.0 -10.7°
Maximum altitude 19:31:49 47° 35° (NE) 1,697 3.6 -11.8°
Enters shadow 19:38:32 16° 103° (ESE) 3,026 4.4 -12.9°
